1st Responders/1st Detectors/Storm Spotters Weather Summary for Knox County, KY

Forecast Maps


Reg. NEXRAD Animation


National Fire Danger: Day 1 & 2 Map

Current NWS Watch/Warnings

SPC Convective Day 1 Outlook


Day 2 Outlook

(Click images to enlarge|Page will refresh every 5 minutes)
UK Ag. Weather Center Desktop Severe Weather Service[HERE]
Knox County, KY Hazardous Weather Outlook Webcast
(9 AM to 9 PM Mon-Fri)
[Fast]
[Dial-up]


UKAWC 1st Detectors/1st Responders Precision Weather Forecast For KNOX County, Kentucky
(based on the NWS County Digital Forecast)

ISSUED AT 02:00 UTC ON TUESDAY MAY 24 2022
DAY MON TUESDAY
EDT 3HR 11P MIDN 1A 2A 3A 4A 5A 6A 7A 8A 9A 10A 11A NOON 1P 2P 3P 4P 5P 6P 7P
MAX/MIN -- -- -- -- -- -- -- -- -- 56° -- -- -- -- -- -- -- -- -- -- 76°
TEMP 58° 58° 58° 58° 56° 56° 56° 56° 56° 56° 58° 61° 63° 65° 68° 70° 72° 74° 76° 76° 74°
SKY COVER 91% 88% 86% 83% 82% 81% 80% 80% 80% 80% 83% 85% 85% 80% 73% 67% 61% 56% 52% 50% 49%
Clouds
DEW PT 56° 56° 56° 56° 56° 56° 56° 56° 56° 56° 56° 58° 58° 58° 59° 61° 61° 61° 61° 61° 61°
RH 92% 93% 92% 93% 96% 96% 100% 99% 99% 99% 92% 89% 83% 78% 73% 70% 66% 61% 59% 61% 64%
POP 12HR -- -- -- -- -- -- -- -- -- 36% -- -- -- -- -- -- -- -- -- -- --
RAIN/SNOW (liq.equ) -- -- -- 0.01in -- -- -- -- -- 0.00in -- -- -- -- -- 0.00in -- -- -- -- --
SNOWFALL -- -- -- 0in -- -- -- -- -- 0in -- -- -- -- -- 0in -- -- -- -- --
WIND SPEED(MPH) 6 5 5 2 2 2 2 1 1 2 1 1 1 1 2 2 2 5 5 5 5
WIND Gust(MPH) 15 14 10 9 8 7 6 6 6 6 6 5 5 5 5 5 5 6 6 7 8
WIND DIR NE NE NE NE NE N N N N N NE NE NE NE NE NE NE NE NE NE NE
DEW -- Mod Dew Mod Dew Hvy Dew Hvy Dew Hvy Dew Hvy Dew Hvy Dew Hvy Dew Hvy Dew Hvy Dew Hvy Dew Hvy Dew Lgt Dew Lgt Dew Lgt Dew -- -- -- -- --
HeatIndex 58 58 58 58 56 56 56 56 56 56 58 61 63 65 68 70 72 74 76 76 74
Rain Showers Slight Chance -- -- -- -- -- -- -- -- -- -- -- -- -- -- -- -- -- -- -- --
Drizzle Slight Chance -- -- -- -- -- -- -- -- -- -- -- -- -- -- -- -- -- -- -- --
Thunder Storm -- -- -- -- -- -- -- -- -- -- -- -- -- -- -- -- -- -- -- -- --
Fog -- -- -- Patchy Patchy Patchy Patchy Areas of Areas of Areas of Areas of Patchy -- -- -- -- -- -- -- -- --
WIND CHILL -- -- -- -- -- -- -- -- -- -- -- -- -- -- -- -- -- -- -- -- --
SPRAY COND
DRY COND
LIVESTOCK HEATSTRESS 58.04 58.03 58.04 58.03 56.06 56.06 56.00 56.02 56.02 56.02 58.04 60.87 62.61 64.25 66.63 68.15 69.53 70.74 72.12 72.31 70.99



DAY WEDNESDAY THURSDAY FRIDAY SATURDAY SUNDAY MONDAY
EDT 6HR 8P 9P 10P 11P MIDN 1A 2A 3A 4A 5A 6A 7A 8A 9A 10A 11A 2P 5P 8P 11P 2A 5A 8A 11A 2P 5P 8P 2A 8A 2P 8P 2A 8A 2P 8P 2A 8A 2P 8P 2A 8A 2P 8P
MAX/MIN -- -- -- -- -- -- -- -- -- -- -- -- 61° -- -- -- -- 83° -- -- -- -- 65° -- -- 76° -- -- 58° 70° -- -- 54° 74° -- -- 54° 81° -- -- 59° 85° --
TEMP 72° 70° 67° 65° 65° 63° 63° 61° 61° 61° 61° 61° 65° 70° 72° 76° 81° 81° 76° 70° 67° 65° 65° 70° 74° 72° 70° 61° 58° 70° 65° 56° 56° 72° 70° 58° 59° 77° 76° 63° 63° 83° 79°
SKY COVER 48% 45% 42% 41% 41% 42% 44% 48% 52% 54% 52% 49% 44% 45% 46% 47% 52% 59% 66% 69% 71% 76% 82% 87% 89% 92% 84% 67% 58% 59% 42% 41% 42% 23% 11% 10% 15% 18% 9% 7% 9% 17% 17%
Clouds
DEW PT 63° 61° 61° 61° 61° 61° 61° 61° 61° 61° 61° 61° 63° 63° 65° 65° 65° 63° 65° 63° 63° 63° 61° 63° 63° 61° 59° 59° 58° 54° 54° 54° 54° 54° 56° 54° 56° 56° 59° 58° 59° 58° 63°
RH 70% 72% 81% 87% 89% 92% 96% 96% 96% 99% 100% 99% 93% 81% 75% 68% 58% 54% 67% 81% 87% 93% 86% 75% 71% 66% 70% 93% 96% 59% 65% 89% 92% 53% 61% 86% 86% 48% 57% 86% 87% 43% 56%
POP 12HR 12% -- -- -- -- -- -- -- -- -- -- -- 18% -- -- -- -- -- 59% -- -- -- 61% -- -- -- 92% -- 77% -- 32% -- 14% -- 9% -- 7% -- 6% -- 4% -- 10%
RAIN/SNOW (liq.equ) 0.00in -- -- -- -- -- 0.00in -- -- -- -- -- 0.01in -- -- -- 0.00in -- 0.06in -- 0.01in -- 0.21in -- 0.36in -- 0.36in -- -- -- -- -- -- -- -- -- -- -- -- -- -- -- --
SNOWFALL 0in -- -- -- -- -- 0in -- -- -- -- -- 0in -- -- -- 0in -- 0in -- 0in -- 0in -- 0in -- 0in -- -- -- -- -- -- -- -- -- -- -- -- -- -- -- --
WIND SPEED(MPH) 5 2 2 2 2 2 2 2 2 5 5 5 5 6 6 7 7 7 7 6 6 6 7 8 10 10 7 2 5 8 6 0 1 5 2 1 2 6 5 2 2 5 2
WIND DIR NE E E E E SE SE SE SE SE SE SE SE S S S S S SE SE SE S S S S S S S SW SW W SW W W W S S SW SE S S SW S
HeatIndex 72 70 67 65 65 63 63 61 61 61 61 61 65 70 72 76 82 83 76 70 67 65 65 70 74 72 70 61 58 70 65 56 56 72 70 58 59 77 76 63 63 83 81
Rain Showers -- -- -- -- -- -- -- -- -- Slight Chance Slight Chance Slight Chance Slight Chance Slight Chance Chance Chance Chance Likely Likely Chance Chance Likely Likely Definite Definite Definite Definite Chance Chance Chance -- -- -- -- -- -- -- -- -- -- -- -- --
Drizzle -- -- -- -- -- -- -- -- -- -- -- -- -- -- -- -- -- -- -- -- -- -- -- -- -- -- -- -- -- -- -- -- -- -- -- -- -- -- -- -- -- -- --
Thunder Storm -- -- -- -- -- -- -- -- -- -- -- -- -- -- Slight Chance Slight Chance Chance Chance Likely Chance Chance Slight Chance -- Slight Chance Chance Likely Slight Chance -- -- Slight Chance -- -- -- -- -- -- -- -- -- -- -- -- --
Fog -- -- -- -- -- -- -- -- -- -- -- -- -- -- -- -- -- -- -- -- -- -- -- -- -- -- -- -- -- -- -- -- -- -- -- -- -- -- -- -- -- -- --
WIND CHILL -- -- -- -- -- -- -- -- -- -- -- -- -- -- -- -- -- -- -- -- -- -- -- -- -- -- -- -- -- -- -- -- -- -- -- -- -- -- -- -- -- -- --
SPRAY COND
DRY COND
LIVESTOCK HEATSTRESS 69.82 68.28 66.14 64.56 64.62 62.82 62.91 60.95 60.95 60.99 61.00 60.99 64.76 68.83 70.19 72.97 75.87 75.38 72.88 68.83 66.41 64.76 64.52 68.46 71.58 69.53 68.15 60.92 58.02 67.47 63.81 56.17 56.12 68.59 67.60 58.06 58.98 71.79 71.93 62.68 62.70 75.41 74.11

Click on individual weather variable above in left-hand column (ie., TEMP, RH, QPF 12HR) to view state forecast maps






NWS 48 Hr. Forecast Maps,

Regional Hourly Observations For KNOX County, Kentucky
Issued at 1000 PM EDT MON MAY 23 2022
SOUTHEAST KENTUCKY
  
CITY           SKY/WX    TMP DP  RH WIND       PRES   REMARKS
JACKSON        CLOUDY    55  53  93 CALM      30.16R                  
LONDON         CLOUDY    57  53  86 NE8       30.15R                  
SOMERSET       CLOUDY    59  57  94 VRB6      30.14S                  
MIDDLESBORO    CLOUDY    60  60 100 N5        30.13R                  
MONTICELLO     CLOUDY    58  32  37 NE6       30.17R                  


Current NOWCAST not available:
Nowcasts are not issued routinely during fair weather. Only when
precipitation or other significant weather is occuring in this county will these
forecasts be issued. Currently, there is no short term forecast in effect.


Fire Weather Forecast For KNOX County, KY
Provided by the National Weather Service:

Issued at: Mon May 23 22:05:01 EDT 2022

700 AM EDT Mon May 23 2022

                      Today        Tonight      Tue          

Cloud Cover           Cloudy       Mcldy        Pcldy        
Chance precip (%)     80           20           20           
Precip type           tstms        showers      showers      
Temp (24H TREND)      66 (-10)     52 (-5)      80           
Rh % (24H TREND)      70 (+6)      100 (+3)     52           
20ftwnd-AM(mph)       NE 4-8 G15                Lgt/Var      
20ftwnd-PM(mph)       NE 4-8 G16   NE 3-7 G14   NE 2-6       
Precip duration       3            1            1            
Precip begin          8 AM                                   
Precip end            Continuing                             
Precip amount         0.31         0.00         0.00         
LAL                   3            2            2            
Haines Index (MID)    3                         2            
Mixing hgt(ft-AGL)    1000                      3200         
Transport wnd (mph)   NE 14                     E  5         
Vent rate (kt-ft)     11676                     14092        
ADI Early             15           10           5            
ADI Late              17           4            20           
Max LVORI Early       6            7            8            
Max LVORI Late        4            9            3            

Remarks...None.

SPC's Fire Weather Web Tool (Excellent!), SPC's Fire Weather Outlooks, NWS Fire Weather WEB, Fire Danger Class Map,
Keetch-Byram Drought Index, ROMAN Web, Haines Index ,
WFAS's 10-hr Dead Fuel Moist., WFAS's 100-hr Dead Fuel Moist., Probablity of Ignition, Visual blackness Map, Palmer Drought Index, HPC's Rainfall Forecast Maps


Hazardous Weather Outlook For KNOX County, Kentucky
859 PM EDT Mon May 23 2022

 DAY ONE  Tonight.

No hazardous weather is expected at this time.

 DAYS TWO THROUGH SEVEN  Tuesday through Sunday.

Thunderstorms will be possible, at times, late Tuesday through 
Friday, especially during the afternoon and evening hours.

 SPOTTER INFORMATION STATEMENT  

Spotter activation is not anticipated.

Latest KNOX County, Kentucky Watches, Warnings and Advisories.
Additional Drought Info.: UKAWC Drought Page, Kentucky Drought Watch


7-Day Forecast For KNOX County, KY

REST OF TONIGHT
Mostly cloudy. A 30 percent chance of showers and drizzle until early morning. Areas of fog through the night. Lows in the mid 50s. Light winds.

TUESDAY
Partly sunny. Areas of fog early. Highs in the upper 70s. Light winds.

TUESDAY NIGHT
Partly cloudy in the evening, then mostly cloudy with a 20 percent chance of showers late. Lows around 60. Light winds.

WEDNESDAY
Partly sunny. A chance of showers and thunderstorms in the morning, then showers and thunderstorms likely in the afternoon. Highs in the mid 80s. Light winds. Chance of rain 60 percent.

WEDNESDAY NIGHT
Mostly cloudy. A chance of showers and thunderstorms in the evening, then showers likely and a chance of thunderstorms late. Lows in the mid 60s. Light winds. Chance of rain 60 percent.

THURSDAY
Showers with thunderstorms likely. Highs in the upper 70s. Chance of rain 90 percent.

THURSDAY NIGHT
Showers and a slight chance of thunderstorms. Lows in the upper 50s. Chance of rain 80 percent.

FRIDAY
Partly sunny with a chance of showers and a slight chance of thunderstorms. Highs in the lower 70s. Chance of rain 30 percent.

FRIDAY NIGHT
Partly cloudy. Lows in the mid 50s.

SATURDAY
Sunny. Highs in the mid 70s.

SATURDAY NIGHT
Mostly clear. Lows in the mid 50s.

SUNDAY
Sunny. Highs in the lower 80s.

SUNDAY NIGHT
Mostly clear. Lows around 60.

MEMORIAL DAY
Sunny. Highs in the mid 80s.

Ag Weather Center, Department of Biosystems & Agricultural Engineering, University of Kentucky